Weather in Pioner

Russia / Penza Oblast     53°02′15″N   46°36′24″E
temp.,
°C
wind,
m/s
gust,
m/s
humid.,
%
clouds,
%
prec.,
mm/h
press.,
hPa
HPBL,
m
22 may, sun
sun2200:00+3sw1179100 0.0 100710
03:00+4ssw2274100 0.0 100625
06:00+6ssw3668100 0.0 1003189
09:00+11sw2253100 0.1 10011333
12:00+12nw114980 0.4 9991492
15:00+12nne325783 0.9 9981029
18:00+10ne477498 0.7 998278
21:00+7ne4982100 0.8 999341
23 may, mon
mon2300:00+5nne3686100 0.1 998237
03:00+3nne369295 0.1 999199
06:00+4n35837 0.0 1000314
09:00+8nnw445976 0.0 10001290
12:00+8nw4453100 0.0 10011553
15:00+8wnw4550100 0.0 10021614
18:00+7wnw4658100 0.0 10031287
21:00+2wnw25835 0.0 100589
24 may, tue
tue2400:00+1wsw36890 0.0 1006115
03:000sw39895 0.0 1006184
06:00+4wsw512745 0.0 1005429
09:00+10wsw69524 0.0 10051734
12:00+13w793989 0.0 10052433
15:00+13w5840100 0.0 10052337
18:00+9nw4668100 0.1 1007538
21:00+5wsw258799 0.6 1009236
25 may, wed
wed2500:00+3wnw369713 0.1 1009142
03:00+1nw239712 0.1 101060
06:00+3nw35875 0.0 1011306
09:00+7nw455863 0.1 10121393
12:00+10nw4545100 0.1 10122047
15:00+9nw5650100 0.1 10131721
18:00+8nw566597 0.2 10141118
21:00+3nw23885 0.3 101550
26 may, thu
thu2600:00+2w23925 0.0 101647
03:00+1w249340 0.0 101666
06:00+4w357652 0.0 1016227
09:00+9wsw45539 0.0 10141404
12:00+12wsw5746100 0.0 10131875
15:00+12sw6961100 0.0 10111237
18:00+13sw5979100 0.8 1008707
21:00+12sw51491100 2.4 1006789